TimeMDT,TemperatureF,Dew PointF,Humidity,Sea Level PressureIn,VisibilityMPH,Wind Direction,Wind SpeedMPH,Gust SpeedMPH,PrecipitationIn,Events,Conditions,WindDirDegrees,DateUTC
12:15 AM,53.6,48.2,82,30.16,10.0,SW,10.4,-,N/A,,Clear,220,2013-09-22 06:15:00
12:35 AM,53.6,48.2,82,30.15,10.0,WSW,9.2,-,N/A,,Clear,240,2013-09-22 06:35:00
12:55 AM,51.8,46.4,82,30.15,10.0,WSW,8.1,-,N/A,,Clear,250,2013-09-22 06:55:00
1:15 AM,51.8,46.4,82,30.14,10.0,WSW,10.4,-,N/A,,Clear,250,2013-09-22 07:15:00
1:35 AM,51.8,46.4,82,30.14,10.0,West,8.1,-,N/A,,Clear,260,2013-09-22 07:35:00
1:55 AM,50.0,46.4,87,30.14,10.0,WSW,5.8,-,N/A,,Clear,250,2013-09-22 07:55:00
2:15 AM,50.0,46.4,87,30.13,10.0,WSW,6.9,-,N/A,,Clear,250,2013-09-22 08:15:00
2:35 AM,50.0,46.4,87,30.12,10.0,WSW,8.1,-,N/A,,Clear,250,2013-09-22 08:35:00
2:55 AM,50.0,46.4,87,30.12,10.0,WSW,8.1,-,N/A,,Clear,240,2013-09-22 08:55:00
3:15 AM,50.0,48.2,94,30.11,10.0,SW,10.4,-,N/A,,Clear,220,2013-09-22 09:15:00
3:35 AM,50.0,46.4,87,30.11,10.0,SW,9.2,-,N/A,,Clear,230,2013-09-22 09:35:00
3:55 AM,50.0,46.4,87,30.10,10.0,West,9.2,-,N/A,,Clear,260,2013-09-22 09:55:00
4:15 AM,50.0,44.6,82,30.10,10.0,SW,6.9,-,N/A,,Clear,230,2013-09-22 10:15:00
4:35 AM,50.0,46.4,87,30.10,10.0,SW,6.9,-,N/A,,Clear,230,2013-09-22 10:35:00
4:55 AM,50.0,46.4,87,30.10,10.0,SW,6.9,-,N/A,,Clear,230,2013-09-22 10:55:00
5:15 AM,50.0,46.4,87,30.10,10.0,WSW,5.8,-,N/A,,Clear,250,2013-09-22 11:15:00
5:35 AM,48.2,44.6,87,30.10,10.0,West,9.2,-,N/A,,Clear,270,2013-09-22 11:35:00
5:55 AM,50.0,44.6,82,30.10,10.0,West,8.1,-,N/A,,Clear,280,2013-09-22 11:55:00
6:15 AM,50.0,42.8,76,30.10,10.0,West,6.9,-,N/A,,Clear,280,2013-09-22 12:15:00
6:35 AM,50.0,41.0,71,30.10,10.0,West,8.1,-,N/A,,Clear,280,2013-09-22 12:35:00
6:55 AM,50.0,42.8,76,30.10,10.0,NW,4.6,-,N/A,,Clear,310,2013-09-22 12:55:00
7:15 AM,50.0,44.6,82,30.10,10.0,Calm,Calm,-,N/A,,Clear,0,2013-09-22 13:15:00
7:35 AM,50.0,46.4,87,30.10,10.0,Calm,Calm,-,N/A,,Clear,0,2013-09-22 13:35:00
7:55 AM,53.6,48.2,82,30.10,10.0,WNW,3.5,-,N/A,,Clear,300,2013-09-22 13:55:00
8:15 AM,53.6,48.2,82,30.11,10.0,WNW,4.6,-,N/A,,Clear,290,2013-09-22 14:15:00
8:35 AM,55.4,48.2,77,30.11,10.0,NW,3.5,-,N/A,,Clear,320,2013-09-22 14:35:00
8:55 AM,57.2,48.2,72,30.11,10.0,NW,3.5,-,N/A,,Clear,310,2013-09-22 14:55:00
9:15 AM,59.0,48.2,67,30.11,10.0,West,3.5,-,N/A,,Clear,260,2013-09-22 15:15:00
9:35 AM,60.8,46.4,59,30.11,10.0,Calm,Calm,-,N/A,,Clear,0,2013-09-22 15:35:00
9:55 AM,62.6,48.2,59,30.11,10.0,ENE,4.6,-,N/A,,Clear,70,2013-09-22 15:55:00
10:15 AM,62.6,48.2,59,30.11,10.0,NNE,3.5,-,N/A,,Clear,20,2013-09-22 16:15:00
10:35 AM,64.4,48.2,56,30.10,10.0,NE,5.8,-,N/A,,Clear,40,2013-09-22 16:35:00
10:55 AM,64.4,46.4,52,30.10,10.0,NE,5.8,-,N/A,,Clear,40,2013-09-22 16:55:00
11:15 AM,66.2,44.6,46,30.10,10.0,North,5.8,-,N/A,,Clear,350,2013-09-22 17:15:00
11:35 AM,66.2,44.6,46,30.09,10.0,NNE,5.8,-,N/A,,Clear,30,2013-09-22 17:35:00
11:55 AM,66.2,44.6,46,30.09,10.0,NE,4.6,-,N/A,,Partly Cloudy,50,2013-09-22 17:55:00
12:15 PM,68.0,44.6,43,30.08,10.0,Calm,Calm,-,N/A,,Partly Cloudy,0,2013-09-22 18:15:00
12:35 PM,68.0,44.6,43,30.07,10.0,SSW,9.2,-,N/A,,Clear,200,2013-09-22 18:35:00
12:55 PM,68.0,44.6,43,30.06,10.0,SSW,12.7,16.1,N/A,,Clear,200,2013-09-22 18:55:00
1:15 PM,69.8,41.0,35,30.05,10.0,SSW,6.9,18.4,N/A,,Clear,210,2013-09-22 19:15:00
1:35 PM,69.8,39.2,33,30.04,10.0,South,15.0,25.3,N/A,,Clear,190,2013-09-22 19:35:00
1:55 PM,71.6,37.4,29,30.03,10.0,SSW,11.5,-,N/A,,Clear,200,2013-09-22 19:55:00
2:15 PM,71.6,39.2,31,30.02,10.0,SW,11.5,16.1,N/A,,Clear,220,2013-09-22 20:15:00
2:35 PM,71.6,37.4,29,30.01,10.0,SW,3.5,-,N/A,,Clear,230,2013-09-22 20:35:00
2:55 PM,71.6,41.0,33,30.00,10.0,South,10.4,17.3,N/A,,Clear,190,2013-09-22 20:55:00
3:15 PM,73.4,39.2,29,30.00,10.0,South,9.2,18.4,N/A,,Clear,190,2013-09-22 21:15:00
3:35 PM,71.6,39.2,31,29.99,10.0,SSW,10.4,17.3,N/A,,Clear,210,2013-09-22 21:35:00
3:55 PM,71.6,41.0,33,29.97,10.0,SSW,19.6,24.2,N/A,,Clear,210,2013-09-22 21:55:00
4:15 PM,71.6,41.0,33,29.96,10.0,SW,20.7,28.8,N/A,,Clear,220,2013-09-22 22:15:00
4:35 PM,71.6,42.8,35,29.96,10.0,SW,21.9,27.6,N/A,,Clear,220,2013-09-22 22:35:00
4:55 PM,69.8,44.6,40,29.96,10.0,SW,19.6,-,N/A,,Clear,220,2013-09-22 22:55:00
5:15 PM,69.8,44.6,40,29.96,10.0,SW,19.6,24.2,N/A,,Clear,220,2013-09-22 23:15:00
5:35 PM,68.0,42.8,40,29.96,10.0,SW,18.4,24.2,N/A,,Clear,230,2013-09-22 23:35:00
5:55 PM,68.0,42.8,40,29.97,10.0,WSW,12.7,-,N/A,,Clear,240,2013-09-22 23:55:00
6:15 PM,68.0,44.6,43,29.96,10.0,SW,12.7,-,N/A,,Clear,220,2013-09-23 00:15:00
6:35 PM,66.2,42.8,43,29.96,10.0,SW,9.2,-,N/A,,Clear,220,2013-09-23 00:35:00
6:55 PM,64.4,44.6,49,29.96,10.0,South,4.6,-,N/A,,Clear,190,2013-09-23 00:55:00
7:15 PM,64.4,42.8,45,29.96,10.0,Calm,Calm,-,N/A,,Clear,0,2013-09-23 01:15:00
7:35 PM,62.6,44.6,52,29.95,10.0,SSE,6.9,-,N/A,,Clear,150,2013-09-23 01:35:00
7:55 PM,62.6,44.6,52,29.96,10.0,SSW,4.6,-,N/A,,Clear,210,2013-09-23 01:55:00
8:15 PM,62.6,42.8,48,29.96,10.0,South,5.8,-,N/A,,Clear,170,2013-09-23 02:15:00
8:35 PM,62.6,42.8,48,29.98,10.0,South,6.9,-,N/A,,Clear,170,2013-09-23 02:35:00
8:55 PM,60.8,42.8,52,29.97,10.0,SE,8.1,-,N/A,,Clear,140,2013-09-23 02:55:00
9:15 PM,60.8,42.8,52,29.97,10.0,South,9.2,-,N/A,,Clear,190,2013-09-23 03:15:00
9:35 PM,59.0,42.8,55,29.97,10.0,South,8.1,-,N/A,,Clear,180,2013-09-23 03:35:00
9:55 PM,59.0,41.0,51,29.97,10.0,SSW,6.9,-,N/A,,Clear,200,2013-09-23 03:55:00
10:15 PM,59.0,42.8,55,29.97,10.0,East,8.1,-,N/A,,Clear,100,2013-09-23 04:15:00
10:35 PM,60.8,42.8,52,29.97,10.0,SE,3.5,-,N/A,,Partly Cloudy,130,2013-09-23 04:35:00
10:55 PM,60.8,42.8,52,29.96,10.0,SSE,9.2,-,N/A,,Partly Cloudy,150,2013-09-23 04:55:00
11:15 PM,59.0,44.6,59,29.96,10.0,South,8.1,-,N/A,,Clear,170,2013-09-23 05:15:00
11:35 PM,59.0,44.6,59,29.96,10.0,South,9.2,-,N/A,,Clear,180,2013-09-23 05:35:00
11:55 PM,59.0,44.6,59,29.96,10.0,SSW,9.2,-,N/A,,Clear,200,2013-09-23 05:55:00